Main page
METAR-TAF:

METAR-TAF

Airports :

Skyros Island National Airport

Skyros, Greece

latitude: 38-58-03N, longitude: 024-29-14E, elevation: 13 m

METAR: missing

Time: 12:30 (09:30 UTC)

Forecast

The report was made 1 hour and 30 minutes ago, at 08:00 UTC
Forecast valid from 15 at 09 UTC to 15 at 18 UTC
Wind 12 kt from the North/Northeast with gusts up to 22 kt
Visibility 10 km or more
Few clouds at a height of 1500 ft
Scattered clouds at a height of 2500 ft

TAF: LGSY 150800Z 1509/1518 02012G22KT 9999 FEW015 SCT025

Weather observations and forecasts of more than 4000 airports (METAR and TAF reports).

The available stations are represented by yellow and red dots on the map.

Hover mouse over dot to see the name of the station.

Then click to see weather observations and forecasts.

To change the map : click on the green buttons with a black cross to zoom in, on the green button with a dash to zoom out, or on the green arrows for adjacent maps.


METAR-TAF: